Date,TemperatureHighF,TemperatureAvgF,TemperatureLowF,DewpointHighF,DewpointAvgF,DewpointLowF,HumidityHigh,HumidityAvg,HumidityLow,PressureMaxIn,PressureMinIn,WindSpeedMaxMPH,WindSpeedAvgMPH,GustSpeedMaxMPH,PrecipitationSumIn
2013-2-1,40.1,30.7,20.7,26.8,19.6,15.3,88,65,40,25.34,25.25,7,2,11,0.00
2013-2-2,43.7,32.1,22.5,25.0,19.3,15.6,85,61,35,25.45,25.34,8,2,11,0.00
2013-2-3,38.1,31.9,26.6,26.4,21.4,15.3,86,66,40,25.34,25.13,6,2,10,0.00
2013-2-4,41.5,31.6,23.5,26.8,21.5,16.3,89,68,42,25.19,25.13,10,2,15,0.00
2013-2-5,47.7,34.2,23.7,24.4,19.2,10.4,82,57,22,25.19,25.01,9,3,12,0.00
2013-2-6,46.0,34.2,25.9,26.6,23.0,18.0,86,65,35,25.10,24.95,9,2,13,0.00
2013-2-7,49.5,36.0,27.0,25.3,18.5,2.3,83,53,14,25.22,25.04,8,3,13,0.00
2013-2-8,55.2,40.5,29.8,29.7,11.9,-99.9,79,39,12,25.04,24.66,16,8,31,0.00
2013-2-9,39.0,34.1,28.0,31.1,22.6,10.6,95,66,32,24.80,24.66,14,6,24,0.00
2013-2-10,35.8,29.8,22.6,25.9,19.7,13.3,94,67,40,24.92,24.80,9,2,14,0.00
2013-2-11,32.9,27.2,21.4,25.7,21.0,10.0,95,79,42,25.10,24.92,10,4,15,0.00
2013-2-12,34.9,24.3,14.9,13.1,6.8,-0.9,80,49,22,25.25,25.10,9,3,12,0.00
2013-2-13,39.2,29.1,19.8,16.5,12.1,6.8,70,50,29,25.28,25.16,10,3,14,0.04
2013-2-14,45.0,32.9,23.5,23.4,15.3,9.1,85,51,25,25.28,25.16,7,2,12,0.00
2013-2-15,46.2,33.4,21.7,20.8,11.8,-4.5,81,45,12,25.39,25.28,8,2,14,0.00
2013-2-16,46.6,33.9,22.6,14.9,8.6,-1.5,60,38,14,25.39,25.13,7,3,12,0.00
2013-2-17,49.3,36.4,24.8,17.1,8.6,-9.6,57,35,11,25.13,24.77,15,5,25,0.00
2013-2-18,40.3,32.4,25.7,8.2,-1.0,-11.9,42,25,12,25.13,24.92,10,4,15,0.00
2013-2-19,48.4,34.8,19.8,6.6,-28.2,-99.9,45,21,11,25.07,24.69,12,5,19,0.00
2013-2-20,47.3,38.1,28.6,24.1,8.7,-5.6,58,31,12,24.69,24.60,11,5,18,0.00
2013-2-21,44.8,36.9,32.7,28.6,20.1,8.2,79,53,22,24.92,24.69,10,4,16,0.00
2013-2-22,36.7,30.2,24.4,28.6,17.0,2.5,93,62,29,25.07,24.92,13,5,19,0.00
2013-2-23,40.5,27.5,19.9,27.3,14.4,2.5,96,61,24,25.04,24.75,16,6,24,0.00
2013-2-24,34.0,26.7,19.8,23.9,11.4,0.7,82,54,39,25.10,24.86,12,6,22,0.00
2013-2-25,40.3,29.7,19.6,12.7,6.4,-3.8,54,38,16,25.19,24.95,8,4,13,0.00
2013-2-26,37.8,30.7,24.4,25.9,11.7,-4.9,95,50,16,25.19,24.92,15,7,22,0.00
2013-2-27,38.8,29.0,20.1,9.1,2.9,-8.3,53,35,13,25.34,25.19,9,4,14,0.00
2013-2-28,42.6,30.8,18.1,7.7,3.6,-3.8,59,34,15,25.42,25.31,9,4,15,0.00